Snowfall_Accumulation
0.0 0.0 0.0 0.0 0.0 0.0 0.0 0.0 0.1 0.0 0.0 0.0 0.0 0.0 0.0 0.0 0.0 0.0 0.0 0.0 0.0 0.0 0.0 0.0 0.0 0.0 0.0 0.0 0.0 0.0 0.0 0.0 0.0 0.0 0.0 0.0 0.0 0.0 0.0 0.0 0.0 0.0 0.0 0.0
0.0 0.0 0.0 0.0 0.0 0.0 0.0 0.0 0.0 0.0 0.0 0.0 0.0 0.0 0.0 0.0 0.0 0.0 0.0 0.0 0.0 0.0 0.0 0.0 0.0 0.0 0.0 0.0 0.0 0.0 0.0 0.0 0.0 0.0 0.0 0.0 0.0 0.0 0.0 0.0 0.0 0.0 0.0 0.0
0.0 0.0 0.0 0.3 0.0 0.0 0.0 0.0 0.0 0.0 0.0 0.0 0.0 0.0 0.0 0.0 0.0 0.0 0.0 0.0 0.0 0.0 0.0 0.0 0.0 0.0 0.0 0.0 0.0 0.0 0.0 0.0 0.0 0.0 0.0 0.0 0.0 0.0 0.0 0.0 0.0 0.0 0.0 0.0
0.6 0.3 1.1 0.0 0.0 0.0 0.0 0.0 0.0 0.0 0.0 0.0 0.0 0.0 0.0 0.0 0.0 0.0 0.0 0.0 0.0 0.0 0.0 0.0 0.0 0.0 0.0 0.0 0.0 0.0 0.0 0.0 0.0 0.0 0.0 0.0 0.0 0.0 0.0 0.0 0.0 0.0 0.0 0.0
1.6 0.2 0.0 0.0 0.0 0.0 0.0 0.0 0.0 0.0 0.0 0.0 0.0 0.0 0.0 0.0 0.0 0.0 0.0 0.0 0.0 0.0 0.0 0.0 0.0 0.0 0.0 0.0 0.0 0.0 0.0 0.0 0.0 0.0 0.0 0.0 0.0 0.0 0.0 0.0 0.0 0.0 0.0 0.0
0.8 0.4 2.1 0.0 0.0 0.0 0.0 0.0 0.0 0.0 0.0 0.0 0.0 0.0 0.0 0.0 0.0 0.0 0.0 0.0 0.0 0.0 0.0 0.0 0.0 0.0 0.0 0.0 0.0 0.0 0.0 0.0 0.0 0.0 0.0 0.0 0.0 0.0 0.0 0.0 0.0 0.0 0.0 0.0
1.3 1.4 0.3 0.0 0.0 0.0 0.3 0.0 0.0 0.0 0.0 0.0 0.0 0.0 0.0 0.0 0.0 0.0 0.0 0.0 0.0 0.0 0.0 0.0 0.0 0.0 0.0 0.0 0.0 0.0 0.0 0.0 0.0 0.0 0.0 0.0 0.0 0.0 0.0 0.0 0.0 0.0 0.0 0.0
1.0 1.4 1.3 0.0 0.0 0.0 0.0 0.0 0.0 0.0 0.0 0.0 0.0 0.0 0.0 0.0 0.0 0.0 0.0 0.0 0.0 0.0 0.0 0.0 0.0 0.0 0.0 0.0 0.0 0.0 0.0 0.0 0.0 0.0 0.0 0.0 0.0 0.0 0.0 0.0 0.0 0.0 0.3 0.2
0.0 0.2 0.0 0.0 0.0 0.0 0.0 0.0 0.0 0.0 0.0 0.0 0.0 0.0 0.0 0.0 0.0 0.0 0.0 0.0 0.0 0.0 0.0 0.0 0.0 0.0 0.0 0.0 0.0 0.0 0.0 0.0 0.0 0.0 0.0 0.0 0.0 0.0 0.0 0.0 0.2 0.1 0.4 0.7
0.0 0.0 0.0 0.0 0.0 0.0 0.0 0.0 0.0 0.0 0.0 0.0 0.0 0.0 0.0 0.0 0.0 0.0 0.0 0.0 0.0 0.0 0.0 0.0 0.0 0.0 0.0 0.0 0.0 0.0 0.0 0.0 0.0 0.0 0.0 0.0 0.0 0.0 0.0 0.3 0.5 0.4 0.6 0.5
0.0 0.0 0.0 0.0 0.0 0.0 0.0 0.0 0.0 0.0 0.0 0.0 0.0 0.0 0.0 0.0 0.0 0.0 0.0 0.0 0.0 0.0 0.0 0.0 0.0 0.0 0.0 0.0 0.0 0.0 0.0 0.0 0.0 0.0 0.0 0.0 0.0 0.0 0.2 0.1 0.4 0.6 0.5 0.7
0.1 0.0 0.0 0.0 0.0 0.0 0.0 0.0 0.0 0.0 0.0 0.0 0.0 0.0 0.0 0.0 0.0 0.0 0.0 0.0 0.0 0.0 0.0 0.0 0.0 0.0 0.0 0.0 0.0 0.0 0.0 0.0 0.2 0.3 0.2 0.0 0.0 0.0 nan nan nan nan nan 1.7
0.0 0.0 0.0 0.0 0.0 0.0 0.0 0.0 0.0 0.0 0.0 0.0 0.0 0.0 0.0 0.0 0.0 nan 0.0 0.0 0.0 0.0 0.0 0.0 0.0 0.0 0.0 0.0 0.0 0.0 0.0 0.0 0.3 0.3 0.3 0.3 0.4 0.5 0.7 0.4 nan nan nan nan
0.0 0.0 0.0 0.0 0.0 0.0 0.0 0.0 0.0 0.0 0.0 0.0 0.0 0.0 0.0 0.0 0.0 0.0 0.0 0.0 0.0 0.0 0.0 0.0 0.0 0.0 0.0 0.0 0.0 0.0 0.0 0.0 0.4 0.3 0.4 0.6 0.8 0.9 1.0 1.5 2.9 2.2 nan nan
0.0 0.0 0.0 0.0 0.0 0.0 0.0 0.0 0.0 0.0 0.0 0.0 0.0 0.0 0.0 0.0 0.0 0.0 0.0 0.0 0.0 0.0 0.0 0.0 0.0 0.0 0.0 0.0 0.0 0.0 0.1 0.3 0.6 1.2 1.4 1.2 1.4 1.5 1.5 2.1 2.6 2.3 1.5 0.7
0.0 0.0 0.0 0.0 0.0 0.0 0.0 0.0 0.0 0.0 0.0 0.0 0.0 0.0 0.0 0.0 0.0 0.0 0.0 0.0 0.1 0.1 0.0 3.0 0.3 0.0 0.0 0.0 0.1 0.2 0.4 0.2 0.7 1.2 1.6 1.8 2.0 2.5 2.1 2.3 2.3 2.7 2.6 2.4
0.0 0.0 0.0 0.0 0.0 0.0 0.0 0.0 0.0 0.0 0.0 0.0 0.0 0.0 0.0 0.0 0.0 0.0 0.0 0.1 1.2 1.7 0.8 0.4 0.4 0.3 0.4 0.6 0.8 1.0 1.1 1.8 0.6 2.4 2.8 2.6 2.7 2.8 2.6 3.5 3.8 3.7 6.4 10.4
0.0 0.0 0.0 0.0 0.0 0.0 0.0 0.0 0.0 0.0 0.0 0.0 0.2 1.7 2.8 2.6 0.3 0.6 1.0 1.2 2.5 2.8 1.5 1.7 2.0 2.4 2.1 2.3 3.3 3.4 3.3 3.2 3.3 3.5 2.9 3.9 3.0 2.4 3.7 4.1 4.1 4.5 5.3 4.4
0.1 0.2 0.1 0.1 0.0 0.0 0.0 0.0 0.0 0.0 1.4 1.1 3.2 3.0 3.3 4.1 1.9 2.5 2.9 7.8 10.5 6.5 6.1 4.2 1.3 3.0 3.6 2.7 1.9 3.3 3.4 4.2 2.9 2.0 2.4 5.9 6.6 3.6 5.3 6.6 5.4 7.1 4.5 6.0
0.0 0.0 0.0 0.0 0.1 0.1 0.2 0.2 0.7 0.9 0.8 1.4 5.7 8.0 7.0 9.6 9.1 9.9 6.9 6.2 4.9 6.3 5.0 4.0 3.0 2.5 2.3 1.1 1.9 1.7 2.9 5.3 3.3 5.8 7.6 3.8 9.7 13.8 9.2 6.8 6.2 9.5 15.9 12.4
1.2 1.6 1.7 1.8 2.9 2.7 4.9 6.2 5.2 5.4 7.3 10.4 10.7 12.5 12.0 8.8 9.3 11.1 8.3 4.9 4.5 3.2 2.1 0.9 1.9 2.2 1.3 1.4 1.3 4.0 6.8 9.4 9.3 5.8 5.9 12.4 17.1 13.0 15.3 15.9 14.3 17.2 20.0 15.5
2.6 3.1 5.3 4.8 4.1 4.9 5.3 5.2 4.3 6.4 6.6 9.7 14.4 15.8 10.9 5.3 6.6 6.4 7.7 3.6 3.5 2.6 2.4 2.5 1.9 3.4 2.5 5.1 2.2 7.6 4.1 4.8 6.9 7.2 7.3 11.8 14.2 21.0 21.2 18.2 18.1 19.7 19.1 19.4
2.7 2.6 2.9 3.9 3.8 3.8 3.5 3.5 7.2 6.0 9.6 8.5 10.2 7.2 5.5 4.1 3.9 5.1 5.0 2.0 2.3 4.3 2.2 3.9 4.8 5.5 5.8 9.2 8.5 10.2 10.2 10.7 11.0 10.5 10.6 16.3 16.1 26.6 15.6 15.3 17.0 17.7 23.1 15.7
2.6 2.3 2.7 2.7 1.9 0.9 1.8 2.9 1.6 2.0 7.1 3.9 5.3 7.8 2.9 6.3 8.4 2.2 2.2 5.9 5.9 15.4 11.7 6.6 8.5 6.1 6.7 11.8 12.3 14.5 13.7 15.1 15.9 18.2 9.3 9.0 24.0 19.0 15.4 22.9 14.5 17.6 18.9 16.0
2.2 2.2 2.3 2.8 1.6 2.9 1.4 1.3 1.0 1.1 0.9 1.1 1.0 0.9 1.1 1.8 7.4 3.9 5.9 5.7 6.6 5.4 7.8 6.4 6.3 7.0 14.5 15.8 16.1 17.0 17.4 16.3 17.9 20.8 14.9 20.7 18.6 27.4 24.7 19.6 24.2 23.8 23.4 19.4
1.9 2.6 2.5 1.7 2.0 1.6 1.5 1.2 2.2 2.1 1.8 5.2 3.1 10.8 7.7 4.9 4.2 4.4 6.1 6.6 4.7 6.3 5.7 13.6 18.5 18.4 17.2 13.1 15.4 15.8 13.0 9.4 14.4 15.1 17.9 16.9 16.6 14.0 18.7 17.0 22.9 27.0 31.8 33.1
2.5 1.0 1.9 1.5 1.6 1.8 1.6 1.6 3.3 4.6 5.2 9.2 7.9 7.7 5.0 8.4 10.5 6.9 8.4 12.7 12.9 13.4 13.5 16.3 14.6 10.5 9.0 14.9 13.0 12.0 12.0 12.9 10.8 11.1 21.8 25.4 23.9 31.7 28.5 27.9 31.1 32.6 28.8 24.9
Water_Equivalent
0.00 0.00 0.00 0.00 0.00 0.00 0.00 0.00 0.02 0.00 0.00 0.00 0.00 0.00 0.00 0.00 0.00 0.00 0.00 0.00 0.00 0.00 0.00 0.00 0.00 0.00 0.00 0.00 0.00 0.00 0.00 0.00 0.00 0.00 0.00 0.00 0.00 0.00 0.00 0.00 0.00 0.00 0.00 0.00
0.00 0.00 0.00 0.00 0.00 0.00 0.00 0.00 0.00 0.00 0.00 0.00 0.00 0.00 0.00 0.00 0.00 0.00 0.00 0.00 0.00 0.00 0.00 0.00 0.00 0.00 0.00 0.00 0.00 0.00 0.00 0.00 0.00 0.00 0.00 0.00 0.00 0.00 0.00 0.00 0.00 0.00 0.00 0.00
0.00 0.00 0.00 0.07 0.00 0.00 0.00 0.00 0.00 0.00 0.00 0.00 0.00 0.00 0.00 0.00 0.00 0.00 0.00 0.00 0.00 0.00 0.00 0.00 0.00 0.00 0.00 0.00 0.00 0.00 0.00 0.00 0.00 0.00 0.00 0.00 0.00 0.00 0.00 0.00 0.00 0.00 0.00 0.00
0.17 0.09 0.28 0.00 0.00 0.00 0.00 0.00 0.00 0.00 0.00 0.00 0.00 0.00 0.00 0.00 0.00 0.00 0.00 0.00 0.00 0.00 0.00 0.00 0.00 0.00 0.00 0.00 0.00 0.00 0.00 0.00 0.00 0.00 0.00 0.00 0.00 0.00 0.00 0.00 0.00 0.00 0.00 0.00
0.43 0.07 0.00 0.00 0.00 0.00 0.00 0.00 0.00 0.00 0.00 0.00 0.00 0.00 0.00 0.00 0.00 0.00 0.00 0.00 0.00 0.00 0.00 0.00 0.00 0.00 0.00 0.00 0.00 0.00 0.00 0.00 0.00 0.00 0.00 0.00 0.00 0.00 0.00 0.00 0.00 0.00 0.00 0.00
0.22 0.07 0.52 0.00 0.00 0.00 0.00 0.01 0.00 0.00 0.00 0.00 0.00 0.02 0.00 0.00 0.00 0.00 0.00 0.00 0.00 0.00 0.00 0.00 0.00 0.00 0.00 0.00 0.00 0.00 0.00 0.00 0.00 0.00 0.00 0.00 0.00 0.00 0.00 0.00 0.00 0.00 0.00 0.00
0.34 0.33 0.09 0.00 0.00 0.00 0.09 0.01 0.00 0.00 0.00 0.00 0.00 0.00 0.00 0.00 0.00 0.00 0.00 0.00 0.00 0.00 0.00 0.00 0.00 0.00 0.00 0.00 0.00 0.00 0.00 0.00 0.00 0.00 0.00 0.00 0.00 0.00 0.00 0.00 0.00 0.00 0.00 0.00
0.31 0.39 0.34 0.00 0.00 0.00 0.01 0.00 0.00 0.00 0.00 0.00 0.00 0.00 0.00 0.00 0.00 0.00 0.00 0.00 0.00 0.00 0.00 0.00 0.00 0.00 0.00 0.00 0.00 0.00 0.00 0.00 0.00 0.00 0.00 0.00 0.00 0.00 0.00 0.00 0.00 0.00 0.07 0.07
0.01 0.07 0.00 0.00 0.00 0.00 0.00 0.00 0.00 0.00 0.00 0.00 0.00 0.00 0.00 0.00 0.00 0.00 0.00 0.00 0.00 0.00 0.00 0.00 0.00 0.00 0.00 0.00 0.00 0.00 0.00 0.00 0.00 0.00 0.00 0.00 0.00 0.00 0.00 0.00 0.06 0.01 0.10 0.18
0.01 0.00 0.00 0.00 0.00 0.00 0.00 0.00 0.00 0.00 0.00 0.00 0.00 0.00 0.00 0.00 0.00 0.00 0.00 0.00 0.00 0.00 0.00 0.00 0.00 0.00 0.00 0.00 0.00 0.00 0.00 0.00 0.00 0.00 0.00 0.00 0.00 0.00 0.00 0.07 0.12 0.11 0.14 0.13
0.00 0.00 0.00 0.00 0.00 0.00 0.00 0.00 0.00 0.00 0.00 0.00 0.00 0.00 0.00 0.00 0.00 0.00 0.00 0.00 0.00 0.00 0.00 0.00 0.00 0.00 0.00 0.00 0.00 0.00 0.00 0.00 0.00 0.00 0.00 0.00 0.00 0.00 0.06 0.02 0.11 0.15 0.14 0.16
0.05 0.00 0.00 0.00 0.00 0.00 0.00 0.00 0.00 0.00 0.00 0.00 0.00 0.00 0.00 0.00 0.00 0.00 0.00 0.00 0.00 0.00 0.00 0.00 0.00 0.00 0.00 0.00 0.00 0.00 0.00 0.00 0.05 0.08 0.07 0.00 0.00 0.00 nan nan nan nan nan 0.37
0.00 0.00 0.00 0.00 0.00 0.00 0.00 0.00 0.00 0.00 0.00 0.00 0.00 0.00 0.00 0.00 0.00 nan 0.00 0.00 0.00 0.00 0.00 0.00 0.00 0.00 0.00 0.00 0.00 0.00 0.00 0.00 0.08 0.07 0.08 0.09 0.11 0.12 0.16 0.11 nan nan nan nan
0.00 0.00 0.00 0.00 0.00 0.00 0.00 0.00 0.00 0.00 0.00 0.00 0.00 0.00 0.00 0.00 0.00 0.00 0.00 0.00 0.00 0.00 0.00 0.00 0.00 0.00 0.00 0.00 0.00 0.00 0.00 0.00 0.10 0.09 0.09 0.15 0.20 0.21 0.22 0.33 0.57 0.45 nan nan
0.00 0.00 0.00 0.00 0.00 0.00 0.00 0.00 0.00 0.00 0.00 0.00 0.00 0.00 0.00 0.00 0.00 0.00 0.00 0.00 0.00 0.00 0.00 0.00 0.00 0.00 0.00 0.00 0.00 0.00 0.03 0.08 0.16 0.28 0.32 0.30 0.34 0.35 0.33 0.42 0.49 0.42 0.31 0.18
0.00 0.00 0.00 0.00 0.00 0.00 0.00 0.00 0.00 0.01 0.00 0.00 0.00 0.00 0.00 0.00 0.00 0.00 0.00 0.00 0.03 0.04 0.00 0.57 0.06 0.00 0.00 0.00 0.01 0.02 0.06 0.05 0.15 0.25 0.34 0.39 0.40 0.48 0.39 0.44 0.44 0.50 0.47 0.43
0.00 0.00 0.00 0.00 0.00 0.00 0.00 0.00 0.00 0.00 0.00 0.00 0.00 0.00 0.00 0.01 0.01 0.00 0.00 0.02 0.23 0.33 0.17 0.08 0.06 0.04 0.06 0.08 0.10 0.16 0.18 0.27 0.21 0.39 0.45 0.44 0.50 0.51 0.47 0.61 0.66 0.61 1.03 1.69
0.00 0.00 0.00 0.00 0.00 0.00 0.00 0.00 0.00 0.00 0.00 0.00 0.04 0.39 0.61 0.54 0.06 0.10 0.16 0.19 0.42 0.46 0.19 0.22 0.26 0.31 0.28 0.30 0.40 0.44 0.47 0.47 0.53 0.60 0.49 0.72 0.53 0.44 0.65 0.68 0.68 0.73 0.85 0.78
0.01 0.02 0.01 0.01 0.01 0.00 0.00 0.00 0.00 0.01 0.33 0.24 0.68 0.58 0.61 0.73 0.27 0.30 0.37 1.17 1.48 0.69 0.62 0.46 0.42 0.45 0.37 0.33 0.31 0.47 0.57 0.83 0.53 0.36 0.45 1.83 1.19 0.65 0.85 1.10 0.90 1.21 0.74 0.89
0.01 0.00 0.00 0.00 0.01 0.01 0.03 0.03 0.15 0.14 0.13 0.22 0.96 1.29 0.93 1.38 1.32 1.44 0.91 0.77 0.55 0.72 0.53 0.42 0.31 0.25 0.23 0.15 0.52 0.28 0.57 1.10 0.64 1.18 1.45 0.69 1.57 2.25 1.47 2.14 1.01 1.55 2.64 1.97
0.20 0.26 0.27 0.30 0.46 0.47 0.84 1.06 0.81 0.72 0.97 1.53 1.64 1.87 1.68 1.20 1.36 1.73 1.15 0.59 0.44 0.37 0.24 0.22 0.24 0.28 0.17 0.18 0.22 0.83 1.41 1.94 1.91 1.16 1.13 2.27 2.97 2.10 2.43 2.72 2.44 2.95 3.32 2.55
0.40 0.48 0.85 0.74 0.61 0.68 0.77 0.73 0.59 0.94 0.93 1.42 2.09 2.31 1.70 0.68 1.00 0.95 1.21 0.50 0.42 0.85 0.38 0.39 0.28 1.06 0.73 1.64 0.45 1.66 0.86 1.00 1.37 1.37 1.42 2.24 2.44 3.31 3.34 2.93 2.80 3.26 3.26 3.35
0.38 0.35 0.40 0.56 0.54 0.47 0.45 0.47 1.15 1.01 1.49 1.34 1.62 1.13 0.85 0.58 0.56 0.79 0.74 0.21 0.35 1.23 0.36 0.77 1.52 1.81 1.93 2.11 1.94 2.21 2.11 2.10 2.11 1.92 1.99 2.96 2.78 4.24 2.26 2.21 2.58 2.67 3.73 2.47
0.35 0.32 0.36 0.36 0.28 0.13 0.24 0.33 0.20 0.24 1.15 0.64 0.89 1.30 0.51 1.18 1.71 0.36 0.38 1.94 1.94 3.85 2.81 1.58 2.25 2.00 2.22 2.59 2.47 2.79 2.59 2.77 2.73 2.96 1.51 2.76 4.07 2.88 2.25 3.27 1.97 2.62 2.80 2.43
0.30 0.31 0.32 0.40 0.20 0.38 0.17 0.16 0.14 0.14 0.12 0.16 0.14 0.13 0.17 0.36 1.43 0.77 1.28 1.26 2.09 1.38 1.71 2.02 2.09 2.30 3.13 3.26 3.01 2.94 2.90 2.47 2.76 3.16 2.20 3.32 2.99 4.28 3.69 2.74 3.14 3.37 3.28 2.88
0.22 0.33 0.32 0.21 0.26 0.23 0.22 0.19 0.34 0.35 0.33 0.98 0.58 2.14 1.57 0.96 0.85 0.86 1.23 1.81 0.95 1.91 1.17 2.84 3.65 3.58 3.33 2.32 2.64 2.67 2.02 1.44 2.09 2.05 2.37 2.33 2.31 1.89 2.29 2.10 2.89 3.68 4.58 5.03
0.31 0.21 0.26 0.21 0.21 0.25 0.25 0.26 0.59 0.76 1.13 1.69 1.42 1.46 0.91 1.56 2.00 1.60 2.37 2.46 2.45 2.63 2.67 3.29 2.85 2.69 1.64 2.70 2.23 1.91 1.77 1.89 2.77 1.48 2.70 3.15 2.95 4.08 3.59 3.66 4.22 4.68 3.92 3.31
SL_Ratio
nan nan nan nan nan nan nan nan 3.3 nan nan nan nan nan nan nan nan nan nan nan nan nan nan nan nan nan nan nan nan nan nan nan nan nan nan nan nan nan nan nan nan nan nan nan
nan nan nan nan nan nan nan nan nan nan nan nan nan nan nan nan nan nan nan nan nan nan nan nan nan nan nan nan nan nan nan nan nan nan nan nan nan nan nan nan nan nan nan nan
4.3 nan nan 3.6 nan nan nan nan nan nan nan nan nan nan nan nan nan nan nan nan nan nan nan nan nan nan nan nan nan nan nan nan nan nan nan nan nan nan nan nan nan nan nan nan
3.3 3.6 4.1 4.2 nan nan nan nan nan nan nan nan nan nan nan nan nan nan nan nan nan nan nan nan nan nan nan nan nan nan nan nan nan nan nan nan nan nan nan nan nan nan nan nan
3.7 3.4 0.0 nan nan nan nan nan nan nan nan nan nan nan nan nan nan nan nan nan nan nan nan nan nan nan nan nan nan nan nan nan nan nan nan nan nan nan nan nan nan nan nan nan
3.6 4.9 4.1 nan nan nan nan 3.2 nan nan nan nan nan 2.7 nan nan nan nan nan nan nan nan nan nan nan nan nan nan nan nan nan nan nan nan nan nan nan nan nan nan nan nan nan nan
3.8 4.2 3.5 nan nan nan 3.4 3.5 nan nan nan nan nan nan nan nan nan nan nan nan nan nan nan nan nan nan nan nan nan nan nan nan nan nan nan nan nan nan nan nan nan nan 4.0 nan
3.1 3.7 4.0 nan nan 3.8 2.9 nan nan nan nan nan nan nan nan nan nan nan nan nan nan nan nan nan nan nan nan nan nan nan nan nan nan nan nan nan nan nan nan nan nan nan 4.0 3.8
3.4 3.3 nan nan nan nan nan nan nan nan nan nan nan nan nan nan nan nan nan nan nan nan nan nan nan nan nan nan nan nan nan nan nan nan nan nan nan nan nan nan 3.8 3.9 3.9 4.0
2.8 nan nan nan nan nan nan nan nan nan nan nan nan nan nan nan nan nan nan nan nan nan nan nan nan nan nan nan nan nan nan nan nan nan nan nan nan nan nan 3.7 4.0 3.9 4.0 4.1
nan nan nan nan nan nan nan nan nan nan nan nan nan nan nan nan nan nan nan nan nan nan nan nan nan nan nan nan nan nan nan nan nan 3.3 nan nan nan nan 3.7 3.8 3.9 4.0 4.0 4.2
2.5 nan nan nan nan nan nan nan nan nan nan nan nan nan nan nan nan nan nan nan nan nan nan nan nan nan nan nan nan nan nan nan 3.5 3.7 3.7 nan nan nan nan nan nan nan nan 4.5
nan nan nan nan nan nan nan nan nan nan nan nan nan nan nan nan nan nan nan nan nan nan nan nan nan nan nan nan nan nan nan nan 3.7 3.7 3.7 3.8 3.9 3.9 4.4 3.8 nan nan nan nan
nan nan nan nan nan nan nan nan nan nan nan nan nan nan nan nan nan nan nan nan nan nan nan nan nan nan nan nan nan 4.0 nan nan 3.7 3.7 3.8 3.9 4.2 4.4 4.5 4.8 5.0 4.9 nan nan
nan nan nan nan nan nan nan nan nan nan nan nan nan nan nan nan nan nan nan nan nan nan nan nan nan nan nan nan nan nan 3.3 3.7 4.0 4.1 4.3 4.2 4.2 4.4 4.6 4.9 5.3 5.4 4.9 4.1
nan nan nan nan nan nan nan nan nan 3.3 3.3 nan nan nan nan nan nan nan nan nan 3.6 3.7 0.0 5.2 4.9 5.3 5.3 5.0 6.9 7.2 5.9 3.5 4.6 4.5 4.6 4.6 5.0 5.2 5.3 5.2 5.3 5.4 5.6 5.7
nan nan nan nan nan nan nan nan nan nan nan nan nan 3.3 0.0 3.5 4.2 4.5 4.0 4.2 5.0 5.0 4.6 4.9 6.1 7.2 7.2 7.2 7.3 6.4 6.2 6.6 3.0 6.2 6.2 5.9 5.5 5.4 5.5 5.7 5.8 6.0 6.2 6.2
nan nan nan nan nan nan nan nan nan nan nan nan 4.1 4.3 4.6 4.8 5.4 6.4 6.3 6.3 5.9 6.2 8.0 8.0 7.9 7.7 7.5 7.7 8.2 7.9 7.1 6.8 6.2 5.9 5.8 5.5 5.6 5.3 5.7 6.0 6.1 6.1 6.2 5.7
6.3 6.7 6.2 5.6 5.9 nan 10.0 10.0 10.0 4.2 4.3 4.5 4.6 5.2 5.4 5.7 7.1 8.1 7.9 6.7 7.1 9.4 9.9 9.2 3.0 6.6 9.5 8.2 6.0 7.1 6.0 5.1 5.4 5.6 5.4 3.2 5.6 5.6 6.2 6.0 6.1 5.9 6.1 6.8
7.6 7.5 7.5 8.5 7.7 7.4 4.8 4.8 4.7 6.3 6.4 6.4 5.9 6.2 7.5 6.9 6.9 6.9 7.5 8.1 9.0 8.7 9.3 9.5 9.6 9.9 9.9 6.9 3.6 5.9 5.0 4.8 5.2 4.9 5.2 5.5 6.1 6.1 6.3 3.2 6.1 6.2 6.0 6.3
6.1 6.1 6.1 5.9 6.2 5.8 5.8 5.9 6.4 7.5 7.6 6.8 6.5 6.7 7.2 7.3 6.8 6.4 7.2 8.3 10.1 8.7 8.7 4.1 8.0 7.6 7.9 7.5 6.0 4.9 4.8 4.8 4.9 5.0 5.2 5.5 5.8 6.2 6.3 5.8 5.9 5.8 6.0 6.1
6.4 6.4 6.2 6.5 6.7 7.2 7.0 7.1 7.3 6.8 7.0 6.8 6.9 6.9 6.4 7.8 6.6 6.7 6.4 7.4 8.3 3.0 6.3 6.4 6.9 3.2 3.5 3.1 4.9 4.6 4.8 4.8 5.0 5.2 5.1 5.3 5.8 6.3 6.4 6.2 6.4 6.0 5.9 5.8
7.2 7.3 7.2 7.0 7.0 8.2 7.7 7.4 6.3 6.0 6.4 6.3 6.3 6.4 6.4 7.1 6.9 6.5 6.8 9.5 6.6 3.5 6.1 5.1 3.2 3.0 3.0 4.3 4.4 4.6 4.8 5.1 5.2 5.4 5.3 5.5 5.8 6.3 6.9 6.9 6.6 6.6 6.2 6.3
7.3 7.2 7.4 7.3 6.9 6.8 7.4 8.7 8.2 8.1 6.1 6.2 6.0 6.0 5.7 5.3 4.9 6.0 5.9 3.0 3.1 4.0 4.2 4.2 3.8 3.0 3.0 4.5 5.0 5.2 5.3 5.4 5.8 6.1 6.1 3.2 5.9 6.6 6.9 7.0 7.4 6.7 6.8 6.6
7.2 7.2 7.3 7.1 7.8 7.6 8.3 8.2 7.6 7.6 7.2 7.0 7.2 7.3 6.3 5.1 5.2 5.1 4.6 4.6 3.2 3.9 4.6 3.2 3.0 3.0 4.6 4.8 5.4 5.8 6.0 6.6 6.5 6.6 6.8 6.2 6.2 6.4 6.7 7.1 7.7 7.1 7.1 6.7
8.4 7.9 7.9 8.3 7.8 7.2 6.8 6.1 6.4 6.1 5.4 5.3 5.3 5.0 4.9 5.1 5.0 5.1 5.0 3.7 4.9 3.3 4.9 4.8 5.1 5.1 5.2 5.6 5.8 5.9 6.4 6.5 6.9 7.3 7.5 7.3 7.2 7.4 8.1 8.1 7.9 7.3 6.9 6.6
8.2 4.9 7.3 7.3 7.7 7.0 6.5 6.1 5.5 6.0 4.6 5.4 5.6 5.3 5.5 5.4 5.3 4.3 3.5 5.2 5.3 5.1 5.1 5.0 5.1 3.9 5.5 5.5 5.8 6.3 6.8 6.8 3.9 7.5 8.1 8.1 8.1 7.8 7.9 7.6 7.4 7.0 7.4 7.5